Location: Newark
(54.3386°S, 169.8415°W)
Time: 06:06:16
(UTC+00:00)

Transit 2A Rocket - Pass Details

Date: 26 October 2019
Orbit: 594 x 909 km, 66.7° (Epoch: 18 November)

Event Time Altitude Azimuth Distance (km) Brightness Sun altitude
Rises 08:39:42 0° 231° (SW) 3,492 10.0 -16.7°
Reaches altitude 10° 08:42:27 10° 221° (SW) 2,584 9.1 -16.9°
Maximum altitude 08:47:53 33° 157° (SSE) 1,504 6.8 -17.4°
Drops below altitude 10° 08:53:23 10° 94° (E) 2,616 7.5 -17.8°
Enters shadow 08:54:10 - 91° (E) 2,868 7.6 -17.9°
Sets 08:56:11 0° 84° (E) 3,543 - -18.0°
